Home   Weather   Haarlem   Past weeks

Flag for Netherlands Past Weather in Haarlem, Netherlands — Yesterday and Last 2 Weeks

Now
32 °F

Chilly.


Feels Like: 32 °F
Forecast: 29 / 39 °F
Wind: 1 mph from Northwest

Location: Amsterdam Schiphol Airport

Current Time: Jan 22, 2017 at 11:51:27 pm

Latest Report: Jan 22, 2017 at 11:25 pm


Visibility: 2 mi

Pressure: 30.33 "Hg

Humidity: 93%

Dew Point: 30 °F

Location of HaarlemLocation

Past Weather in Haarlem — Graph

°F

Haarlem Temperature Yesterday

Maximum temperature yesterday: 41 °F (at 2:25 pm)
Minimum temperature yesterday: 25 °F (at 11:55 pm)
Average temperature yesterday: 33 °F

High & Low Weather Summary for the Past Weeks

 TemperatureHumidityPressure
High50 °F (Jan 11, 11:55 am)100% (Jan 7, 10:25 pm)30.74 "Hg (Jan 7, 10:25 pm)
Low21 °F (Jan 17, 11:25 pm)39% (Jan 19, 2:25 pm)29.09 "Hg (Jan 12, 11:25 pm)
Average35 °F88%30.18 "Hg
* Reported Jan 7 10:25 pm — Jan 22 10:25 pm, Haarlem, Weather by CustomWeather, © 2017

Note: Actual official high and low records may vary slightly from our data, if they occured in-between our weather recording intervals... More about our weather records

Advertising

Haarlem Weather History for the Previous 24 Hours

Scroll right to see more
 ConditionsComfort  
Time TempWeatherWind HumidityBarometerVisibility
10:25 pm
Sun, Jan 22
32 °FChilly.3 mph100%30.33 "Hg3 mi
9:55 pm32 °FIce fog.3 mph93%30.33 "Hg3 mi
9:25 pm30 °FIce fog.1 mph100%30.33 "Hg3 mi
8:55 pm32 °FIce fog.No wind93%30.33 "Hg3 mi
8:25 pm32 °FIce fog.2 mph93%30.30 "Hg3 mi
7:55 pm32 °FIce fog.3 mph93%30.33 "Hg3 mi
7:25 pm34 °FFog.3 mph93%30.33 "Hg3 mi
6:55 pm32 °FIce fog.1 mph100%30.33 "Hg3 mi
6:25 pm32 °FPassing clouds.1 mph93%30.30 "Hg4 mi
5:55 pm32 °FPassing clouds.1 mph93%30.30 "Hg4 mi
5:25 pm34 °FPassing clouds.1 mph93%30.30 "Hg4 mi
4:55 pm36 °FScattered clouds.1 mph87%30.30 "Hg3 mi
4:25 pm36 °FScattered clouds.3 mph87%30.30 "Hg4 mi
3:55 pm36 °FPassing clouds.7 mph87%30.30 "Hg5 mi
3:25 pm37 °FClear.6 mph81%30.30 "Hg6 mi
2:55 pm37 °FClear.6 mph81%30.30 "Hg6 mi
2:25 pm39 °FClear.5 mph75%30.30 "Hg6 mi
1:55 pm37 °FSunny.3 mph75%30.33 "Hg10 mi
1:25 pm37 °FClear.5 mph75%30.33 "Hg6 mi
12:55 pm36 °FSunny.3 mph81%30.33 "Hg10 mi
12:25 pm34 °FClear.2 mph81%30.33 "Hg6 mi
11:55 am32 °FClear.2 mph87%30.33 "Hg6 mi
11:25 am30 °FSunny.2 mph86%30.33 "Hg10 mi
10:55 am28 °FSunny.2 mph93%30.36 "Hg10 mi
10:25 am27 °FSunny.1 mph100%30.36 "Hg10 mi
9:55 am25 °FSunny.3 mph93%30.33 "Hg10 mi
9:25 am21 °FClear.3 mph100%30.33 "Hg6 mi
8:55 am21 °FClear.2 mph93%30.33 "Hg4 mi
8:25 am21 °FClear.3 mph100%30.33 "Hg4 mi
7:55 am21 °FClear.3 mph100%30.30 "Hg4 mi
7:25 am21 °FFog.3 mph93%30.33 "Hg5 mi
6:55 am21 °FFog.3 mph100%30.33 "Hg5 mi
6:25 am25 °FFog.2 mph93%30.33 "Hg5 mi
5:55 am23 °FFog.1 mph93%30.33 "Hg4 mi
5:25 am25 °FFog.3 mph100%30.33 "Hg4 mi
4:55 am23 °FFog.3 mph100%30.33 "Hg4 mi
4:25 am23 °FFog.3 mph100%30.33 "Hg4 mi
3:55 am27 °FFog.2 mph93%30.33 "Hg4 mi
3:25 am25 °FFog.1 mph100%30.33 "Hg4 mi
2:55 am27 °FFog.2 mph93%30.33 "Hg5 mi
2:25 am27 °FFog.1 mph93%30.33 "Hg6 mi
1:55 am27 °FClear.3 mph100%30.33 "Hg10 mi
1:25 am27 °FClear.5 mph93%30.33 "Hg10 mi
12:55 am25 °FClear.5 mph100%30.33 "Hg10 mi
12:25 am25 °FClear.5 mph93%30.33 "Hg10 mi
11:55 pm
Sat, Jan 21
25 °FClear.6 mph93%30.33 "Hg10 mi
11:25 pm28 °FClear.5 mph93%30.36 "Hg10 mi
Weather by CustomWeather, © 2017

See weather overviewHow to use our weather pages